Casper, WY

2:30 PM MST on December 09, 2019 (GMT -0700)
Natrona County International

Weather History for KCPR - October, 2019

Change the Weather History Date:

Friday, October 25, 2019

  Actual Average Record
Temperature  
Mean Temperature 47 °F 42 °F  
Max Temperature 60 °F 56 °F 77 °F (2014)
Min Temperature 34 °F 29 °F 13 °F (1997)
Degree Days  
Heating Degree Days 18 23  
Month to date heating degree days 562 472  
Since 1 July heating degree days 733 757  
Cooling Degree Days 0 0  
Month to date cooling degree days 0 0  
Year to date cooling degree days 441 422  
Moisture  
Dew Point 25 °F    
Average Humidity 46    
Maximum Humidity 61    
Minimum Humidity 31    
Precipitation  
Precipitation 0.00 in 0.03 in 0.46 in (2006)
Month to date precipitation 1.01 0.91  
Year to date precipitation 11.71 11.07  
Snow  
Snow 0.00 in 0.30 in - ()
Month to date snowfall 7.6 5.6  
Since 1 July snowfall 7.6 7.4  
Since 1 September snowfall 7.6 7.4  
Snow Depth 0.00 in    
Sea Level Pressure  
Sea Level Pressure 30.12 in    
Wind  
Wind Speed 21 mph (SSW)    
Max Wind Speed 33 mph    
Max Gust Speed 44 mph    
Visibility 10 miles    
Events      
T = Trace of Precipitation, MM = Missing Value Source: NWS Daily Summary

Daily Weather History Graph

Daily Weather History Graph

Search for Another Location

Airport or City:

Astronomy

Oct. 25, 2019 Rise Set
Actual Time 7:31 AM MDT 6:07 PM MDT
Civil Twilight 7:02 AM MDT 6:36 PM MDT
Nautical Twilight 6:29 AM MDT 7:10 PM MDT
Astronomical Twilight 5:56 AM MDT 7:42 PM MDT
Moon 4:10 AM MDT (10/25) 5:17 PM MDT (10/25)
Length of Visible Light 11h 34m
Length of Day
10h 36m
Waning Crescent, 8% of the Moon is Illuminated
Oct 25
Waning Crescent
Oct 27
New
Nov 4
First Quarter
Nov 12
Full
Nov 19
Last Quarter

Hourly Weather History & Observations

Time (MDT) Temp. Windchill Dew Point Humidity Pressure Visibility Wind Dir Wind Speed Gust Speed Precip Events Conditions
12:53 AM 34.0 °F 24.2 °F 21.0 °F 59% 30.30 in 10.0 mi SW 15.0 mph - N/A   Clear
1:53 AM 35.1 °F 26.4 °F 21.9 °F 59% 30.28 in 10.0 mi SW 12.7 mph - N/A   Clear
2:53 AM 36.0 °F 27.1 °F 21.9 °F 57% 30.27 in 10.0 mi SW 13.8 mph - N/A   Clear
3:53 AM 36.0 °F 25.6 °F 21.9 °F 57% 30.27 in 10.0 mi SSW 18.4 mph - N/A   Clear
4:53 AM 36.0 °F 25.6 °F 21.9 °F 57% 30.27 in 10.0 mi SW 18.4 mph 27.6 mph N/A   Clear
5:53 AM 36.0 °F 26.0 °F 21.0 °F 55% 30.28 in 10.0 mi SSW 17.3 mph 26.5 mph N/A   Clear
6:53 AM 36.0 °F 25.3 °F 21.0 °F 55% 30.30 in 10.0 mi SSW 19.6 mph 28.8 mph N/A   Clear
7:53 AM 36.0 °F 25.3 °F 21.0 °F 55% 30.32 in 10.0 mi SW 19.6 mph 28.8 mph N/A   Clear
8:53 AM 39.9 °F 29.5 °F 21.9 °F 49% 30.31 in 10.0 mi SSW 24.2 mph 36.8 mph N/A   Clear
9:53 AM 43.0 °F 33.8 °F 23.0 °F 45% 30.30 in 10.0 mi SSW 23.0 mph 33.4 mph N/A   Clear
10:53 AM 46.9 °F - 24.1 °F 41% 30.26 in 10.0 mi SSW 28.8 mph 38.0 mph 0.00 in   Clear
11:53 AM 50.0 °F - 25.0 °F 38% 30.22 in 10.0 mi SSW 26.5 mph 36.8 mph N/A   Clear
12:53 PM 53.1 °F - 26.1 °F 35% 30.15 in 10.0 mi SW 29.9 mph 41.4 mph N/A   Clear
1:53 PM 55.9 °F - 27.0 °F 33% 30.09 in 10.0 mi SW 27.6 mph 41.4 mph N/A   Clear
2:53 PM 57.9 °F - 28.9 °F 33% 30.05 in 10.0 mi SSW 28.8 mph 36.8 mph N/A   Clear
3:53 PM 59.0 °F - 28.0 °F 31% 30.01 in 10.0 mi SSW 25.3 mph 35.7 mph N/A   Clear
4:53 PM 57.9 °F - 28.9 °F 33% 29.99 in 10.0 mi SSW 18.4 mph 27.6 mph N/A   Clear
5:53 PM 55.0 °F - 28.0 °F 35% 29.97 in 10.0 mi SSW 17.3 mph - N/A   Clear
6:53 PM 52.0 °F - 27.0 °F 38% 29.96 in 10.0 mi SSW 21.9 mph - N/A   Clear
7:53 PM 51.1 °F - 26.1 °F 38% 29.94 in 10.0 mi SSW 23.0 mph 33.4 mph N/A   Clear
8:53 PM 48.9 °F - 27.0 °F 43% 29.93 in 10.0 mi SSW 15.0 mph - N/A   Clear
9:53 PM 48.9 °F - 27.0 °F 43% 29.91 in 10.0 mi SSW 12.7 mph - N/A   Clear
10:53 PM 48.9 °F - 27.0 °F 43% 29.87 in 10.0 mi SW 21.9 mph - 0.00 in   Clear
11:53 PM 46.9 °F - 27.0 °F 46% 29.84 in 10.0 mi SW 21.9 mph 33.4 mph N/A   Clear